Starlink 6077

operational
NORAD ID: 56097 Int'l Des: 2023-046 Owner: SPXS Country: US Constellation: starlink
LEOCIRCULAR

About Starlink 6077

Description loading...

Live Position

Loading 3D Globe...

Upcoming Passes

Altitude History

Altitude vs Time

uPlot chart will show altitude changes over time

Two-Line Element Set

1 56097U 23046E 26066.19053299 .00000637 00000-0 62240-4 0 9994
2 56097 43.0018 120.6798 0001130 271.7194 88.3519 15.02535180162287
Epoch: Mar 7, 2026 • Age: 15 hours

Current Status

Altitude 558.5 km
Velocity 7.59 km/s
Sub-Earth Point 14.10°N, 105.28°W
Launch Date Mar 29, 2023
Age 2.9 years
Type internet

Technical Details

Classification Payload
Mass 305.00 kg
Dry Mass 290.00 kg
Total Mass 305.00 kg
Length 0.20 m
Diameter 2.80 m
Span 9.00 m
Shape Box + pan
Manufacturer SPXS
Bus Type Starlink
Phase Status In Orbit
Owner/State SPXS/US

Large Constellations

Loading constellations...